Regional Weather Roundup
Issued by NWS Sterling, VA

Home | Current Version | Previous Version | Text Only | Print | Product List | Glossary Off
Versions: 1 2 3 4 5 6 7 8 9 10 11 12 13 14 15 16 17 18 19 20 21 22 23 24 25 26 27 28 29 30 31 32 33 34 35 36 37 38 39 40 41 42 43 44 45 46 47 48 49 50

000
ASUS41 KLWX 210310
RWRLWX

REGIONAL WEATHER ROUNDUP
NATIONAL WEATHER SERVICE BALTIMORE MD/WASHINGTON DC
1000 PM EST THU NOV 20 2014

Note: "FAIR" indicates few or no clouds below 12,000 feet
with no significant weather and/or obstructions to visibility.
 TC=TEMPERATURE CELSIUS

 * =Non NWS site. Station does not report precipitation (e.g. rain,
    snow, etc.), thunder, or fog.

DCZ001-MDZ009-015-VAZ040>042-051-053>054-210400-
WASHINGTON METRO

CITY           SKY/WX    TMP DP  RH WIND       PRES   REMARKS
WASHINGTON NAT CLEAR     41  12  30 NW15G24   30.07R
DULLES         CLEAR     35  14  42 NW9       30.07R WCI  28
ANDREWS AFB    CLEAR     38  13  35 NW13      30.05R
FT BELVOIR     CLEAR     38  14  36 NW12      30.07R
QUANTICO       CLEAR     37  15  40 N6        30.09R
COLLEGE PARK*  CLEAR     37  12  35 NW8G16    30.06R
LEESBURG*      CLEAR     36  18  48 NW12G20   30.08R WCI  27
MANASSAS*      CLEAR     34  18  51 N8        30.07R WCI  27
GAITHERSBURG*  CLEAR     32  10  40 N5        30.10R

$$

MDZ006>007-011-014-210400-
BALTIMORE METRO

CITY           SKY/WX    TMP DP  RH WIND       PRES   REMARKS
BWI AIRPORT    PTCLDY    35  11  36 NW10      30.06R WCI  27
MD SCIENCE CTR   N/A     37   9  31 MISG      30.06R
MARTIN STATE   CLEAR     37  12  35 NW23G33   30.07R WCI  26
ANNAPOLIS      CLEAR     39  15  37 NW12      30.05R
FORT MEADE*    CLEAR     36  10  35 NW10G18   30.08R WCI  28

$$

MDZ012-015-019>023-210400-
MARYLAND EASTERN SHORE

CITY           SKY/WX    TMP DP  RH WIND       PRES   REMARKS
OCEAN CITY     CLEAR     41  23  48 NW9       30.04R
SALISBURY      CLEAR     42  21  43 N10       30.05R
BAY BRIDGE AP*   N/A     37  14  38 NW13G22   30.06R
CAMBRIDGE*     CLEAR     41  19  42 N6        30.05R
EASTON*        CLEAR     38  20  46 N6        30.09

$$

MDZ017>025-210400-
SOUTHERN MARYLAND

CITY           SKY/WX    TMP DP  RH WIND       PRES   REMARKS
PATUXENT RIVER CLEAR     41  18  39 NW10      30.06R
ST INIGOES     CLEAR     42  15  33 NW6       30.06R
LEONARDTOWN*   CLEAR     39  14  35 W8        30.07R

$$

MDZ003>005-210400-
NORTH CENTRAL MARYLAND

CITY           SKY/WX    TMP DP  RH WIND       PRES   REMARKS
FREDERICK*     CLEAR     36   9  32 NW12      30.11R WCI  27
HAGERSTOWN APT CLEAR     31  10  41 W14       30.07R WCI  21
WESTMINSTER*   PTCLDY    30   7  37 W6        30.05R

$$

MDZ501>502-210400-
WESTERN MARYLAND

CITY           SKY/WX    TMP DP  RH WIND       PRES   REMARKS
OAKLAND*       CLOUDY    19  10  68 W15G25    29.98R WCI   5
CUMBERLAND*    CLEAR     32  12  43 W16G30    30.13R WCI  21

$$

VAZ025>031-210400-
SHENANDOAH VALLEY

CITY           SKY/WX    TMP DP  RH WIND       PRES   REMARKS
WINCHESTER*    CLEAR     34   5  29 W13       30.07R WCI  25
FRONT ROYAL*   FAIR      36  14  41 W5        30.05R
LURAY*         FAIR      39  14  35 W15G21    30.05R
NEW MARKET*    FAIR      37  10  33 W13G23    30.06R WCI  28
STAUNTON*      CLEAR     35  11  36 CALM      30.07R
WAYNESBORO*    FAIR      37  13  37 W12G20    30.05R WCI  29

$$

WVZ021-048>050-054>055-210400-
EASTERN WEST VIRGINIA PANHANDLE

CITY           SKY/WX    TMP DP  RH WIND       PRES   REMARKS
MARTINSBURG    CLEAR     33   5  30 NW10      30.08R WCI  25
PETERSBURG*    PTCLDY    32   9  37 NW6G21    30.11R

$$

VAZ036>039-050-210400-
CENTRAL FOOTHILLS

CITY           SKY/WX    TMP DP  RH WIND       PRES   REMARKS
CHARLOTTESVILL CLEAR     41   9  26 VRB3      30.06R
CULPEPER*      CLEAR     39   9  28 NW5       30.06R
ORANGE*        CLEAR     37  16  41 SW7       30.08R
GORDONSVILLE*  FAIR      43   9  25 W7        30.06R
WARRENTON*     FAIR      30  22  71 E3        30.06R

$$

VAZ055>057-210400-
NORTH AND CENTRAL PIEDMONT

CITY           SKY/WX    TMP DP  RH WIND       PRES   REMARKS
FREDERICKSBRG* CLEAR     37  19  48 CALM      30.07R
STAFFORD*      CLEAR     33  14  45 CALM      30.10R

$$

NCZ024-NYZ072-PAZ021-071-VAZ022-071-210400-
OTHER REGIONAL OBSERVATIONS

CITY           SKY/WX    TMP DP  RH WIND       PRES   REMARKS
NEW YORK CITY  CLEAR     34   9  35 W8G20     30.01R WCI  27
PHILADELPHIA   PTCLDY    35  10  35 VRB6G18   30.06R
PITTSBURGH     MOCLDY    23  18  81 W9        30.11R WCI  13
ROANOKE        CLEAR     38  13  35 W3        30.11R
RICHMOND       CLEAR     39  24  55 CALM      30.06R
RALEIGH        CLEAR     43  27  53 SW3       30.12R

$$

ANZ530>537-210400-
MARINE OBSERVATIONS

STATION/POSITION TIME  TEMP    WIND        PRES
                       AIR SEA DIR/SP/G
                 (UTC) (F)     (DEG/KT/KT) (MB)
THOMAS PT LIGHT  0300   39 48  310/ 13/ 15 1018.8R
BALT KEY BRIDGE  0300   39     290/ 21/ 25 1017.5R
COVE POINT       0300   43     360/ 10/ 13 1017.6R
LEWISETTA        0300   45 46  360/  9/ 14 1017.8R
SOLOMONS ISLAND  0300      49                N/A
PINEY POINT      0300           10/  8/ 10   N/A

$$



USA.gov is the U.S. government's official web portal to all federal, state and local government web resources and services.